This is the latest recevied weather packets stored in our database for station/object KB0BS-13. If no packets are shown the sender has not sent any weather packets the latest 10 day(s).
| Time | Temp. | Humidity | Pressure | Rain* | Wind** | Luminosity | Snow |
|---|---|---|---|---|---|---|---|
| 1777319536 | 16.11° C | 56% | 1013.8 hPa | 0 mm | - | 416 W/m² | - |
| 1777319234 | 16.11° C | 56% | 1013.8 hPa | 0 mm | - | 412 W/m² | - |
| 1777318930 | 16.67° C | 55% | 1014 hPa | 0 mm | - | 479 W/m² | - |
| 1777318628 | 16.67° C | 55% | 1014 hPa | 0 mm | - | 479 W/m² | - |
| 1777318323 | 16.67° C | 56% | 1014.1 hPa | 0 mm | - | 543 W/m² | - |
| 1777318020 | 16.67° C | 55% | 1014.3 hPa | 0 mm | - | 576 W/m² | - |
| 1777317717 | 16.67° C | 56% | 1014.4 hPa | 0 mm | - | 581 W/m² | - |
| 1777317414 | 16.67° C | 55% | 1014.3 hPa | 0 mm | - | 569 W/m² | - |
| 1777317110 | 16.67° C | 55% | 1014.4 hPa | 0 mm | - | 585 W/m² | - |
| 1777316807 | 17.22° C | 56% | 1014.6 hPa | 0 mm | - | 613 W/m² | - |
| 1777316504 | 16.67° C | 55% | 1014.7 hPa | 0 mm | - | 635 W/m² | - |
| 1777316201 | 16.67° C | 56% | 1014.7 hPa | 0 mm | - | 640 W/m² | - |
| 1777315898 | 16.67° C | 57% | 1014.9 hPa | 0 mm | - | 629 W/m² | - |
| 1777315597 | 16.67° C | 57% | 1015.1 hPa | 0 mm | - | 585 W/m² | - |
| 1777315294 | 16.67° C | 58% | 1015.4 hPa | 0 mm | - | 596 W/m² | - |
| 1777314992 | 16.67° C | 58% | 1015.3 hPa | 0 mm | - | 609 W/m² | - |
| 1777314687 | 16.67° C | 58% | 1015.3 hPa | 0 mm | - | 632 W/m² | - |
| 1777314384 | 16.67° C | 56% | 1015.2 hPa | 0 mm | - | 635 W/m² | - |
| 1777314081 | 16.67° C | 57% | 1015.3 hPa | 0 mm | - | 647 W/m² | - |
| 1777313779 | 16.67° C | 56% | 1015.5 hPa | 0 mm | - | 646 W/m² | - |
| 1777313476 | 16.11° C | 58% | 1015.7 hPa | 0 mm | - | 660 W/m² | - |
| 1777313174 | 16.11° C | 56% | 1015.9 hPa | 0 mm | - | 658 W/m² | - |
| 1777312869 | 16.67° C | 57% | 1016.2 hPa | 0 mm | - | 672 W/m² | - |
| 1777312566 | 16.11° C | 55% | 1016.1 hPa | 0 mm | - | 676 W/m² | - |
| 1777312263 | 16.11° C | 56% | 1016.5 hPa | 0 mm | - | 686 W/m² | - |
* Rain latest hour (hover to see other rain measurements)
** Current wind speed in m/s (hover to see current wind gust speed)